TimeCDT,TemperatureF,Dew PointF,Humidity,Sea Level PressureIn,VisibilityMPH,Wind Direction,Wind SpeedMPH,Gust SpeedMPH,PrecipitationIn,Events,Conditions,WindDirDegrees,DateUTC
12:15 AM,32.4,31.5,96,29.77,7.0,North,12.7,19.6,N/A,,Overcast,10,2013-03-10 06:15:00
12:35 AM,32.2,31.1,96,29.75,7.0,North,15.0,23.0,N/A,,Overcast,360,2013-03-10 06:35:00
12:55 AM,32.0,31.1,96,29.75,7.0,North,16.1,24.2,N/A,,Overcast,10,2013-03-10 06:55:00
1:15 AM,32.0,31.1,96,29.77,10.0,North,15.0,26.5,N/A,,Overcast,360,2013-03-10 07:15:00
1:35 AM,32.0,30.7,95,29.76,10.0,North,17.3,24.2,N/A,,Overcast,10,2013-03-10 07:35:00
1:55 AM,32.0,30.0,92,29.76,7.0,North,19.6,29.9,N/A,Snow,Light Snow,10,2013-03-10 07:55:00
3:15 AM,32.0,29.8,92,29.77,7.0,North,18.4,29.9,N/A,,Overcast,360,2013-03-10 08:15:00
3:35 AM,31.6,29.3,91,29.78,7.0,North,17.3,26.5,N/A,,Overcast,10,2013-03-10 08:35:00
3:55 AM,31.5,29.1,91,29.77,5.0,North,17.3,25.3,N/A,,Overcast,360,2013-03-10 08:55:00
4:15 AM,30.9,28.4,90,29.77,5.0,North,18.4,31.1,N/A,Snow,Light Snow,360,2013-03-10 09:15:00
4:35 AM,30.9,28.4,90,29.78,7.0,North,13.8,26.5,N/A,,Overcast,360,2013-03-10 09:35:00
4:55 AM,30.6,28.2,91,29.77,5.0,North,16.1,27.6,N/A,,Overcast,10,2013-03-10 09:55:00
5:15 AM,30.2,28.2,92,29.78,3.0,North,19.6,27.6,N/A,Snow,Light Snow,360,2013-03-10 10:15:00
5:35 AM,30.2,28.0,92,29.82,5.0,North,21.9,29.9,N/A,Snow,Light Snow,350,2013-03-10 10:35:00
5:55 AM,30.0,27.5,90,29.83,3.0,North,15.0,31.1,N/A,Snow,Light Snow,360,2013-03-10 10:55:00
6:15 AM,29.3,27.3,92,29.82,1.5,North,16.1,29.9,N/A,Snow,Light Snow,10,2013-03-10 11:15:00
6:35 AM,29.1,27.3,93,29.84,1.2,North,19.6,26.5,N/A,Snow,Light Snow,360,2013-03-10 11:35:00
7:15 AM,28.8,27.1,94,29.89,1.2,North,16.1,24.2,N/A,Snow,Light Snow,360,2013-03-10 12:15:00
7:35 AM,27.7,26.2,94,29.87,1.0,North,16.1,25.3,N/A,Snow,Light Snow,360,2013-03-10 12:35:00
7:55 AM,27.1,25.9,95,29.88,0.5,North,15.0,25.3,N/A,Snow,Snow,350,2013-03-10 12:55:00
8:15 AM,27.1,25.7,94,29.87,0.2,North,18.4,28.8,N/A,Snow,Snow,360,2013-03-10 13:15:00
8:35 AM,27.1,26.1,96,29.86,-9999.0,North,18.4,24.2,N/A,,Overcast,360,2013-03-10 13:35:00
8:55 AM,27.3,26.1,95,29.88,-9999.0,North,16.1,21.9,N/A,,Overcast,360,2013-03-10 13:55:00
9:15 AM,27.0,25.5,94,29.87,-9999.0,North,16.1,25.3,N/A,,Overcast,360,2013-03-10 14:15:00
9:35 AM,26.6,25.2,94,29.88,-9999.0,North,17.3,27.6,N/A,,Overcast,360,2013-03-10 14:35:00
9:55 AM,27.0,25.0,92,29.90,-9999.0,North,16.1,23.0,N/A,,Unknown,360,2013-03-10 14:55:00
10:15 AM,26.6,24.3,91,29.88,-9999.0,North,19.6,29.9,N/A,,Overcast,360,2013-03-10 15:15:00
10:35 AM,26.6,23.9,90,29.88,-9999.0,North,17.3,27.6,N/A,,Overcast,360,2013-03-10 15:35:00
10:55 AM,26.6,23.9,90,29.89,-9999.0,North,16.1,26.5,N/A,,Overcast,360,2013-03-10 15:55:00
11:15 AM,26.6,23.5,88,29.90,-9999.0,North,19.6,26.5,N/A,,Overcast,10,2013-03-10 16:15:00
11:35 AM,26.6,23.5,88,29.89,-9999.0,North,21.9,32.2,N/A,,Overcast,10,2013-03-10 16:35:00
11:55 AM,26.6,23.9,90,29.89,-9999.0,North,18.4,34.5,N/A,,Overcast,360,2013-03-10 16:55:00
12:15 PM,26.6,23.9,90,29.87,-9999.0,North,26.5,32.2,N/A,,Overcast,360,2013-03-10 17:15:00
12:35 PM,26.6,23.9,90,29.90,-9999.0,North,20.7,27.6,N/A,,Overcast,360,2013-03-10 17:35:00
12:55 PM,26.6,23.9,90,29.87,-9999.0,North,19.6,29.9,N/A,,Overcast,360,2013-03-10 17:55:00
1:15 PM,26.6,23.9,90,29.86,-9999.0,North,24.2,33.4,N/A,,Overcast,10,2013-03-10 18:15:00
1:35 PM,26.4,23.5,89,29.88,-9999.0,North,25.3,32.2,N/A,,Overcast,360,2013-03-10 18:35:00
1:55 PM,26.4,23.7,90,29.89,-9999.0,North,17.3,25.3,N/A,,Overcast,360,2013-03-10 18:55:00
2:15 PM,26.1,23.7,91,29.88,-9999.0,North,20.7,32.2,N/A,,Unknown,10,2013-03-10 19:15:00
2:35 PM,26.1,23.9,92,29.87,-9999.0,North,24.2,32.2,N/A,,Overcast,360,2013-03-10 19:35:00
2:55 PM,26.1,23.9,92,29.85,-9999.0,North,18.4,31.1,N/A,,Overcast,360,2013-03-10 19:55:00
3:15 PM,26.1,24.3,93,29.85,-9999.0,North,19.6,27.6,N/A,,Overcast,360,2013-03-10 20:15:00
3:35 PM,25.9,24.1,93,29.86,-9999.0,North,21.9,31.1,N/A,,Overcast,360,2013-03-10 20:35:00
3:55 PM,25.7,24.3,94,29.85,-9999.0,North,21.9,29.9,N/A,,Overcast,360,2013-03-10 20:55:00
4:15 PM,25.7,23.9,93,29.86,0.2,North,18.4,33.4,N/A,Snow,Snow,10,2013-03-10 21:15:00
4:35 PM,25.7,23.9,93,29.86,0.5,North,19.6,29.9,N/A,Snow,Snow,360,2013-03-10 21:35:00
4:55 PM,25.7,23.9,93,29.86,0.5,North,16.1,26.5,N/A,Snow,Snow,360,2013-03-10 21:55:00
5:15 PM,25.5,23.9,94,29.86,0.5,North,18.4,27.6,N/A,Snow,Snow,360,2013-03-10 22:15:00
5:35 PM,25.2,23.7,94,29.87,0.2,North,20.7,28.8,N/A,Snow,Heavy Snow,10,2013-03-10 22:35:00
5:55 PM,25.2,23.7,94,29.87,-9999.0,North,19.6,32.2,0.01,,Overcast,360,2013-03-10 22:55:00
6:15 PM,24.8,23.5,95,29.88,-9999.0,North,17.3,25.3,N/A,,Overcast,360,2013-03-10 23:15:00
6:35 PM,25.0,23.7,95,29.89,-9999.0,North,18.4,25.3,N/A,,Overcast,360,2013-03-10 23:35:00
6:55 PM,24.8,23.7,96,29.89,-9999.0,North,20.7,28.8,0.01,,Overcast,360,2013-03-10 23:55:00
7:15 PM,24.8,23.5,95,29.88,-9999.0,North,19.6,31.1,N/A,,Overcast,360,2013-03-11 00:15:00
7:35 PM,24.4,23.0,94,29.89,-9999.0,North,19.6,31.1,N/A,,Overcast,350,2013-03-11 00:35:00
7:55 PM,24.4,23.0,94,29.89,-9999.0,North,19.6,25.3,N/A,,Overcast,350,2013-03-11 00:55:00
8:15 PM,23.9,22.8,96,29.89,-9999.0,North,16.1,29.9,N/A,,Overcast,350,2013-03-11 01:15:00
8:35 PM,23.9,22.6,95,29.89,-9999.0,North,17.3,26.5,N/A,,Overcast,350,2013-03-11 01:35:00
8:55 PM,23.7,22.3,94,29.89,-9999.0,NNW,18.4,27.6,N/A,,Overcast,340,2013-03-11 01:55:00
9:15 PM,23.7,22.5,95,29.89,-9999.0,North,19.6,27.6,0.01,,Overcast,350,2013-03-11 02:15:00
9:35 PM,23.7,22.1,94,29.89,-9999.0,North,17.3,25.3,0.01,,Overcast,350,2013-03-11 02:35:00
9:55 PM,23.4,21.9,94,29.90,-9999.0,NNW,18.4,24.2,0.01,,Overcast,340,2013-03-11 02:55:00
10:15 PM,23.0,21.7,95,29.90,-9999.0,North,16.1,24.2,N/A,,Overcast,350,2013-03-11 03:15:00
10:35 PM,23.0,21.6,94,29.91,-9999.0,North,17.3,26.5,N/A,,Overcast,350,2013-03-11 03:35:00
10:55 PM,23.0,21.2,93,29.90,-9999.0,North,16.1,26.5,N/A,,Overcast,350,2013-03-11 03:55:00
11:15 PM,23.0,21.2,93,29.90,-9999.0,North,17.3,21.9,N/A,,Overcast,350,2013-03-11 04:15:00
11:35 PM,23.0,21.2,93,29.89,-9999.0,North,16.1,23.0,N/A,,Overcast,350,2013-03-11 04:35:00
11:55 PM,23.5,21.2,91,29.89,-9999.0,North,16.1,21.9,N/A,,Unknown,360,2013-03-11 04:55:00
12:15 AM,23.5,21.2,91,29.89,-9999.0,North,15.0,20.7,N/A,,Overcast,350,2013-03-11 05:15:00
12:35 AM,23.2,21.2,92,29.89,-9999.0,North,15.0,18.4,N/A,,Overcast,350,2013-03-11 05:35:00
12:55 AM,23.0,20.8,91,29.89,-9999.0,North,13.8,18.4,N/A,,Overcast,350,2013-03-11 05:55:00